Terug naar catalogus

FENGYUN 1C DEB

ActiefPO
NORAD 30139·DEBRIS·🇨🇳 China

Gelanceerd May 10, 1999 vanaf Taiyuan Satellite Launch Center

Loading…

Volgende Passages (komende 24 uur)

TLE

VerouderendSource: Space-Track

Epoch: Sep 9, 2026, 18:02 UTC

1 30139U 99025SU  26252.75163459  .00001368  00000-0  81962-3 0  9995
2 30139  98.3575  79.9587 0128570 241.5403 177.3962 14.04517612    19

Volg FENGYUN 1C DEB in realtime met AllMySat

Download on the App Store